Home   Weather   Kotka   Past weeks

Flag for Finland Past Weather in Kotka, Finland — Yesterday and Last 2 Weeks

46 °F

Drizzle. Low clouds.

Feels Like: 41 °F
Forecast: 41 / 44 °F
Wind: 12 mph from South

Location: Utti

Current Time: Oct 28, 2016 at 3:11:45 PM

Latest Report: Oct 28, 2016 at 2:20 PM

Visibility: N/A

Pressure: 29.53 "Hg

Humidity: 93%

Dew Point: 45 °F

Location of KotkaLocation

Past Weather in Kotka — Graph


Kotka Temperature Yesterday

Maximum temperature yesterday: 46 °F (at 11:50 PM)
Minimum temperature yesterday: 28 °F (at 1:20 AM)
Average temperature yesterday: 37 °F

High & Low Weather Summary for the Past Weeks

High46 °F (Oct 27, 11:50 PM)100% (Oct 14, 12:50 AM)30.69 "Hg (Oct 14, 12:50 AM)
Low28 °F (Oct 27, 1:20 AM)60% (Oct 22, 5:50 PM)29.56 "Hg (Oct 28, 1:20 PM)
Average36 °F85%30.45 "Hg
* Reported Oct 13 1:20 PM — Oct 28 1:50 PM, Kotka, Weather by CustomWeather, © 2016

Note: Actual official high and low records may vary slightly from our data, if they occured in-between our weather recording intervals... More about our weather records


Kotka Weather History for the Previous 24 Hours

Scroll right to see more
Time TempWeatherWind HumidityBarometerVisibility
1:50 PM
Fri, Oct 28
46 °FDrizzle. Low clouds.14 mph93%29.56 "HgN/A
1:20 PM46 °FDrizzle. Low clouds.12 mph93%29.56 "Hg4 mi
12:50 PM46 °FDrizzle. Low clouds.10 mph100%29.59 "Hg4 mi
12:20 PM46 °FDrizzle. Fog.9 mph100%29.59 "Hg2 mi
11:50 AM46 °FDrizzle. Low clouds.8 mph93%29.62 "Hg4 mi
11:20 AM46 °FDrizzle. Low clouds.9 mph100%29.65 "Hg5 mi
10:50 AM46 °FDrizzle. Low clouds.10 mph100%29.65 "Hg2 mi
10:20 AM46 °FDrizzle. Low clouds.10 mph93%29.65 "Hg2 mi
9:50 AM46 °FDrizzle. Low clouds.9 mph93%29.68 "HgN/A
9:20 AM46 °FDrizzle. Low clouds.13 mph93%29.68 "HgN/A
8:50 AM46 °FDrizzle. Low clouds.10 mph93%29.71 "HgN/A
8:20 AM46 °FDrizzle. Fog.13 mph93%29.71 "Hg2 mi
7:50 AM46 °FDrizzle. Fog.14 mph93%29.74 "Hg2 mi
7:20 AM46 °FDrizzle. Low clouds.14 mph93%29.74 "HgN/A
6:50 AM45 °FDrizzle. Low clouds.14 mph100%29.74 "HgN/A
6:20 AM45 °FDrizzle. Low clouds.13 mph100%29.77 "HgN/A
5:50 AM46 °FDrizzle. Low clouds.16 mph93%29.77 "HgN/A
5:20 AM46 °FLight rain. Low clouds.14 mph93%29.80 "HgN/A
4:50 AM46 °FRain. Low clouds.14 mph93%29.83 "HgN/A
4:20 AM46 °FLight rain. Low clouds.14 mph93%29.83 "HgN/A
3:50 AM46 °FLight rain. Fog.14 mph93%29.86 "Hg2 mi
3:20 AM46 °FLight rain. Fog.14 mph93%29.86 "Hg2 mi
2:50 AM46 °FSprinkles. Low clouds.13 mph93%29.89 "Hg6 mi
2:20 AM46 °FDrizzle. Low clouds.13 mph93%29.89 "Hg4 mi
1:50 AM46 °FLight rain. Low clouds.10 mph93%29.92 "Hg4 mi
1:20 AM46 °FSprinkles. Fog.10 mph93%29.92 "Hg2 mi
12:50 AM45 °FSprinkles. Fog.12 mph100%29.95 "Hg2 mi
12:20 AM46 °FSprinkles. Low clouds.9 mph93%29.95 "Hg3 mi
11:50 PM
Thu, Oct 27
46 °FLow clouds.12 mph93%29.95 "Hg5 mi
11:20 PM45 °FLow clouds.9 mph100%29.95 "HgN/A
10:50 PM45 °FLight rain. Fog.10 mph100%29.95 "Hg2 mi
10:20 PM45 °FSprinkles. Fog.10 mph100%29.98 "Hg2 mi
9:50 PM45 °FLow clouds.10 mph100%29.98 "Hg3 mi
9:20 PM45 °FSprinkles. Low clouds.10 mph100%29.98 "Hg4 mi
8:50 PM45 °FSprinkles. Low clouds.10 mph100%30.01 "Hg4 mi
8:20 PM45 °FLow clouds.12 mph93%29.98 "Hg3 mi
7:50 PM45 °FLight rain. Low clouds.9 mph93%30.01 "Hg5 mi
7:20 PM43 °FLight rain. Low clouds.12 mph100%30.01 "Hg5 mi
6:50 PM43 °FLight rain. Low clouds.12 mph100%30.01 "Hg4 mi
6:20 PM43 °FLight rain. Low clouds.12 mph100%30.01 "Hg4 mi
5:50 PM43 °FLight rain. Low clouds.12 mph93%30.01 "Hg4 mi
5:20 PM43 °FLight rain. Low clouds.12 mph93%30.04 "HgN/A
4:50 PM43 °FLight rain. Low clouds.10 mph93%30.04 "HgN/A
4:20 PM41 °FDrizzle. Low clouds.10 mph100%30.07 "HgN/A
3:50 PM41 °FDrizzle. Low clouds.13 mph100%30.07 "HgN/A
3:20 PM41 °FDrizzle. Low clouds.13 mph100%30.07 "HgN/A
Weather by CustomWeather, © 2016

See weather overviewHow to use our weather pages